| time (UTC) | temp F | wind direction | speed knots | gust knots | rain 1hr in | rain 24hr in | rain mn in | humidity % | barometer mb |
| 20260508165241 | 81 | 80 | 13.0 | 21.7 | 0.00 | 0.03 | 0.03 | 85 | 1007.0 |
| 20260508164737 | 81 | 85 | 17.4 | 25.2 | 0.00 | 0.03 | 0.03 | 84 | 1007.0 |
| 20260508164234 | 81 | 100 | 18.2 | 27.8 | 0.00 | 0.03 | 0.03 | 84 | 1007.0 |
| 20260508163732 | 81 | 94 | 18.2 | 25.2 | 0.00 | 0.03 | 0.03 | 85 | 1007.0 |
| 20260508163229 | 81 | 101 | 20.0 | 26.9 | 0.00 | 0.03 | 0.03 | 85 | 1006.6 |
| 20260508162725 | 80 | 86 | 13.0 | 17.4 | 0.00 | 0.03 | 0.03 | 86 | 1007.0 |
| 20260508162222 | 80 | 82 | 15.6 | 23.5 | 0.00 | 0.03 | 0.03 | 86 | 1007.0 |
| 20260508161719 | 80 | 88 | 15.6 | 20.9 | 0.00 | 0.03 | 0.03 | 85 | 1007.3 |
| 20260508161216 | 80 | 94 | 16.5 | 22.6 | 0.00 | 0.03 | 0.03 | 85 | 1007.3 |
| 20260508160714 | 81 | 90 | 18.2 | 22.6 | 0.00 | 0.03 | 0.03 | 85 | 1007.7 |
| 20260508160212 | 81 | 94 | 16.5 | 27.8 | 0.00 | 0.03 | 0.03 | 86 | 1007.7 |
| 20260508155709 | 81 | 93 | 17.4 | 26.1 | 0.00 | 0.03 | 0.03 | 84 | 1007.3 |
| 20260508155206 | 81 | 95 | 15.6 | 20.9 | 0.00 | 0.03 | 0.03 | 83 | 1007.3 |
| 20260508154703 | 81 | 91 | 22.6 | 32.2 | 0.00 | 0.03 | 0.03 | 84 | 1007.3 |
| 20260508154159 | 81 | 96 | 18.2 | 26.9 | 0.00 | 0.03 | 0.03 | 86 | 1007.7 |
| 20260508153656 | 81 | 91 | 14.8 | 20.9 | 0.00 | 0.03 | 0.03 | 87 | 1007.7 |
| 20260508153153 | 80 | 89 | 17.4 | 24.3 | 0.00 | 0.03 | 0.03 | 88 | 1007.7 |
| 20260508152650 | 80 | 90 | 17.4 | 27.8 | 0.00 | 0.03 | 0.03 | 88 | 1007.7 |
| 20260508152145 | 80 | 89 | 14.8 | 24.3 | 0.00 | 0.03 | 0.03 | 88 | 1008.0 |
| 20260508151642 | 80 | 101 | 13.0 | 18.2 | 0.00 | 0.02 | 0.02 | 87 | 1008.0 |
| 20260508151139 | 80 | 91 | 16.5 | 20.9 | 0.00 | 0.02 | 0.02 | 86 | 1008.0 |
| 20260508150636 | 80 | 93 | 13.9 | 19.1 | 0.00 | 0.02 | 0.02 | 86 | 1008.0 |
| 20260508150132 | 80 | 97 | 14.8 | 20.0 | 0.00 | 0.02 | 0.02 | 86 | 1007.7 |
| 20260508145628 | 81 | 91 | 19.1 | 26.1 | 0.00 | 0.02 | 0.02 | 85 | 1008.0 |
| 20260508145125 | 81 | 88 | 15.6 | 23.5 | 0.00 | 0.02 | 0.02 | 85 | 1007.7 |
| 20260508144623 | 81 | 91 | 17.4 | 25.2 | 0.00 | 0.02 | 0.02 | 85 | 1008.0 |
| 20260508144120 | 81 | 87 | 13.9 | 20.0 | 0.00 | 0.02 | 0.02 | 85 | 1008.0 |
| 20260508143617 | 80 | 92 | 17.4 | 28.7 | 0.00 | 0.02 | 0.02 | 85 | 1008.0 |
| 20260508143114 | 80 | 88 | 17.4 | 25.2 | 0.00 | 0.02 | 0.02 | 87 | 1008.0 |
| 20260508142610 | 80 | 89 | 14.8 | 22.6 | 0.00 | 0.01 | 0.01 | 88 | 1008.3 |
| 20260508142107 | 80 | 94 | 14.8 | 18.2 | 0.00 | 0.01 | 0.01 | 89 | 1008.3 |
| 20260508141604 | 80 | 93 | 10.4 | 16.5 | 0.00 | 0.01 | 0.01 | 89 | 1008.8 |
| 20260508141102 | 79 | 88 | 14.8 | 20.0 | 0.00 | 0.01 | 0.01 | 89 | 1008.8 |
| 20260508140558 | 79 | 93 | 16.5 | 23.5 | 0.00 | 0.01 | 0.01 | 90 | 1008.8 |
| 20260508140055 | 79 | 73 | 13.0 | 16.5 | 0.00 | 0.00 | 0.00 | 90 | 1008.8 |
| 20260508135550 | 79 | 80 | 12.2 | 15.6 | 0.00 | 0.79 | 0.79 | 90 | 1009.1 |
| 20260508135047 | 79 | 84 | 14.8 | 17.4 | 0.00 | 0.78 | 0.78 | 90 | 1008.8 |
| 20260508134544 | 79 | 88 | 20.0 | 23.5 | 0.47 | 0.76 | 0.76 | 90 | 1008.8 |
| 20260508134041 | 79 | 91 | 16.5 | 26.1 | 0.00 | 0.73 | 0.73 | 90 | 1008.8 |
| 20260508133538 | 79 | 88 | 18.2 | 26.1 | 0.00 | 0.71 | 0.71 | 89 | 1008.8 |
| 20260508133035 | 80 | 98 | 19.1 | 26.9 | 0.00 | 0.69 | 0.69 | 88 | 1008.8 |
| 20260508132533 | 80 | 84 | 13.0 | 19.1 | 0.00 | 0.69 | 0.69 | 88 | 1008.8 |
| 20260508132029 | 80 | 79 | 11.3 | 15.6 | 0.00 | 0.69 | 0.69 | 88 | 1009.1 |
| 20260508131524 | 80 | 80 | 13.9 | 20.0 | 0.00 | 0.69 | 0.69 | 89 | 1008.8 |
| 20260508131021 | 80 | 76 | 14.8 | 19.1 | 0.00 | 0.69 | 0.69 | 88 | 1008.8 |
| 20260508130519 | 80 | 81 | 16.5 | 22.6 | 0.47 | 0.68 | 0.68 | 87 | 1009.1 |
| 20260508130015 | 82 | 80 | 17.4 | 24.3 | 0.47 | 0.64 | 0.64 | 84 | 1009.1 |
| 20260508125511 | 82 | 83 | 14.8 | 20.0 | 0.00 | 0.63 | 0.63 | 82 | 1008.8 |
| 20260508125009 | 82 | 92 | 14.8 | 19.1 | 0.00 | 0.62 | 0.62 | 82 | 1008.8 |
| 20260508124506 | 82 | 82 | 13.0 | 17.4 | 0.00 | 0.62 | 0.62 | 83 | 1009.1 |
| 20260508124003 | 82 | 94 | 15.6 | 22.6 | 0.00 | 0.62 | 0.62 | 83 | 1009.1 |
| 20260508123502 | 82 | 98 | 10.4 | 13.9 | 0.00 | 0.62 | 0.62 | 82 | 1009.1 |
| 20260508122958 | 82 | 79 | 13.9 | 20.0 | 0.00 | 0.62 | 0.62 | 83 | 1009.1 |
| 20260508122455 | 82 | 80 | 11.3 | 14.8 | 0.00 | 0.62 | 0.62 | 82 | 1009.1 |
| 20260508121952 | 82 | 83 | 13.9 | 20.9 | 0.00 | 0.62 | 0.62 | 81 | 1009.1 |
| 20260508121450 | 82 | 83 | 17.4 | 21.7 | 0.00 | 0.62 | 0.62 | 82 | 1009.1 |
| 20260508120948 | 82 | 92 | 13.0 | 17.4 | 0.00 | 0.62 | 0.62 | 82 | 1008.8 |
| 20260508120445 | 82 | 90 | 17.4 | 21.7 | 0.00 | 0.62 | 0.62 | 83 | 1008.8 |
| 20260508115943 | 82 | 79 | 11.3 | 15.6 | 0.00 | 0.62 | 0.62 | 83 | 1009.1 |
| 20260508115441 | 82 | 88 | 15.6 | 20.0 | 0.00 | 0.62 | 0.62 | 83 | 1008.8 |
| 20260508114937 | 82 | 96 | 16.5 | 24.3 | 0.00 | 0.62 | 0.62 | 83 | 1008.8 |
| 20260508114434 | 81 | 93 | 13.0 | 19.1 | 0.00 | 0.62 | 0.62 | 83 | 1008.8 |
| 20260508113930 | 81 | 100 | 13.0 | 15.6 | 0.00 | 0.62 | 0.62 | 84 | 1008.8 |
| 20260508113428 | 81 | 86 | 16.5 | 20.9 | 0.00 | 0.62 | 0.62 | 85 | 1008.8 |
| 20260508112925 | 80 | 87 | 11.3 | 20.0 | 0.00 | 0.62 | 0.62 | 87 | 1008.8 |
| 20260508112422 | 80 | 93 | 13.0 | 21.7 | 0.00 | 0.62 | 0.62 | 88 | 1008.8 |
| 20260508111918 | 80 | 76 | 13.9 | 16.5 | 0.00 | 0.62 | 0.62 | 87 | 1008.3 |
| 20260508111415 | 80 | 64 | 12.2 | 16.5 | 0.00 | 0.62 | 0.62 | 86 | 1008.3 |
| 20260508110913 | 80 | 79 | 12.2 | 19.1 | 0.00 | 0.62 | 0.62 | 86 | 1008.3 |
| 20260508110410 | 80 | 85 | 12.2 | 16.5 | 0.00 | 0.62 | 0.62 | 87 | 1008.3 |
| 20260508105910 | 80 | 75 | 13.9 | 20.9 | 0.00 | 0.62 | 0.62 | 88 | 1008.0 |
| 20260508105407 | 80 | 72 | 13.0 | 16.5 | 0.00 | 0.62 | 0.62 | 87 | 1008.3 |
| 20260508104904 | 80 | 75 | 15.6 | 22.6 | 0.00 | 0.62 | 0.62 | 86 | 1008.0 |
| 20260508104401 | 81 | 70 | 13.0 | 16.5 | 0.00 | 0.62 | 0.62 | 86 | 1008.0 |
| 20260508103858 | 80 | 77 | 13.0 | 18.2 | 0.00 | 0.62 | 0.62 | 85 | 1008.0 |
| 20260508103355 | 80 | 73 | 14.8 | 19.1 | 0.00 | 0.62 | 0.62 | 85 | 1008.0 |
| 20260508102852 | 81 | 75 | 13.9 | 16.5 | 0.00 | 0.62 | 0.62 | 84 | 1008.0 |
| 20260508102350 | 81 | 78 | 15.6 | 20.9 | 0.00 | 0.62 | 0.62 | 83 | 1007.7 |
| 20260508101847 | 82 | 73 | 15.6 | 19.1 | 0.00 | 0.62 | 0.62 | 83 | 1007.7 |
| 20260508101344 | 82 | 78 | 12.2 | 18.2 | 0.00 | 0.62 | 0.62 | 83 | 1007.7 |
| 20260508100842 | 82 | 79 | 10.4 | 15.6 | 0.00 | 0.62 | 0.62 | 82 | 1008.0 |
| 20260508100341 | 82 | 82 | 13.0 | 18.2 | 0.00 | 0.62 | 0.62 | 81 | 1007.7 |
| 20260508095836 | 82 | 74 | 14.8 | 21.7 | 0.00 | 0.62 | 0.62 | 82 | 1007.7 |
| 20260508095334 | 82 | 80 | 11.3 | 14.8 | 0.00 | 0.62 | 0.62 | 83 | 1007.7 |
| 20260508094831 | 82 | 71 | 13.0 | 17.4 | 0.00 | 0.61 | 0.61 | 83 | 1007.7 |
| 20260508094327 | 82 | 82 | 11.3 | 15.6 | 0.00 | 0.61 | 0.61 | 84 | 1007.7 |
| 20260508093825 | 82 | 76 | 12.2 | 15.6 | 0.00 | 0.61 | 0.61 | 84 | 1007.7 |
| 20260508093322 | 81 | 67 | 13.9 | 18.2 | 0.00 | 0.61 | 0.61 | 84 | 1007.3 |
| 20260508092819 | 81 | 82 | 14.8 | 20.9 | 0.00 | 0.61 | 0.61 | 84 | 1007.7 |
| 20260508092317 | 81 | 81 | 11.3 | 14.8 | 0.00 | 0.61 | 0.61 | 84 | 1007.7 |
| 20260508091815 | 81 | 73 | 14.8 | 20.0 | 0.00 | 0.61 | 0.61 | 84 | 1007.7 |
| 20260508091311 | 81 | 75 | 16.5 | 22.6 | 0.00 | 0.61 | 0.61 | 85 | 1007.7 |
| 20260508090809 | 81 | 68 | 13.0 | 16.5 | 0.00 | 0.61 | 0.61 | 85 | 1007.7 |
| 20260508090308 | 81 | 78 | 16.5 | 21.7 | 0.00 | 0.61 | 0.61 | 84 | 1007.7 |
| 20260508085803 | 81 | 68 | 11.3 | 15.6 | 0.00 | 0.61 | 0.61 | 84 | 1007.7 |
| 20260508085300 | 81 | 73 | 13.0 | 17.4 | 0.00 | 0.61 | 0.61 | 84 | 1007.3 |
| 20260508084755 | 81 | 81 | 13.0 | 18.2 | 0.00 | 0.61 | 0.61 | 84 | 1007.7 |
| 20260508084253 | 81 | 81 | 13.0 | 16.5 | 0.00 | 0.61 | 0.61 | 84 | 1007.3 |
| 20260508083751 | 81 | 76 | 13.0 | 19.1 | 0.00 | 0.61 | 0.61 | 84 | 1007.3 |
| 20260508083248 | 81 | 77 | 13.0 | 15.6 | 0.00 | 0.61 | 0.61 | 85 | 1007.0 |
| 20260508082748 | 81 | 63 | 10.4 | 16.5 | 0.00 | 0.61 | 0.61 | 86 | 1007.3 |
| 20260508082246 | 81 | 63 | 10.4 | 14.8 | 0.00 | 0.61 | 0.61 | 86 | 1007.0 |
| 20260508081743 | 81 | 52 | 13.0 | 18.2 | 0.00 | 0.61 | 0.61 | 86 | 1007.3 |
| 20260508081239 | 81 | 53 | 10.4 | 11.3 | 0.00 | 0.61 | 0.61 | 84 | 1007.0 |
| 20260508080737 | 82 | 64 | 12.2 | 14.8 | 0.00 | 0.61 | 0.61 | 82 | 1007.0 |
| 20260508080235 | 82 | 67 | 8.7 | 12.2 | 0.00 | 0.61 | 0.61 | 82 | 1007.0 |
| 20260508075731 | 82 | 60 | 11.3 | 13.9 | 0.00 | 0.61 | 0.61 | 82 | 1007.0 |
| 20260508075228 | 81 | 57 | 12.2 | 16.5 | 0.00 | 0.61 | 0.61 | 83 | 1007.0 |
| 20260508074726 | 81 | 66 | 12.2 | 15.6 | 0.00 | 0.61 | 0.61 | 83 | 1007.0 |
| 20260508074223 | 81 | 61 | 13.0 | 18.2 | 0.00 | 0.61 | 0.61 | 83 | 1007.0 |
| 20260508073719 | 81 | 64 | 13.0 | 18.2 | 0.00 | 0.61 | 0.61 | 84 | 1007.0 |
| 20260508073218 | 80 | 68 | 13.0 | 17.4 | 0.00 | 0.61 | 0.61 | 85 | 1007.0 |
| 20260508072713 | 80 | 69 | 11.3 | 13.0 | 0.00 | 0.61 | 0.61 | 86 | 1007.0 |
| 20260508072210 | 80 | 67 | 12.2 | 17.4 | 0.00 | 0.61 | 0.61 | 86 | 1006.6 |
| 20260508071708 | 81 | 76 | 14.8 | 20.9 | 0.00 | 0.61 | 0.61 | 85 | 1006.6 |
| 20260508071206 | 82 | 66 | 11.3 | 14.8 | 0.00 | 0.60 | 0.60 | 83 | 1006.6 |
| 20260508070703 | 82 | 46 | 12.2 | 18.2 | 0.00 | 0.60 | 0.60 | 83 | 1006.6 |
| 20260508070202 | 82 | 58 | 13.9 | 18.2 | 0.00 | 0.60 | 0.60 | 83 | 1006.6 |
| 20260508065658 | 82 | 65 | 11.3 | 16.5 | 0.00 | 0.60 | 0.60 | 83 | 1006.6 |
| 20260508065156 | 82 | 55 | 12.2 | 18.2 | 0.00 | 0.60 | 0.60 | 83 | 1006.6 |
| 20260508064654 | 82 | 48 | 10.4 | 14.8 | 0.00 | 0.60 | 0.60 | 81 | 1006.6 |
| 20260508064152 | 82 | 60 | 11.3 | 14.8 | 0.00 | 0.60 | 0.60 | 80 | 1006.6 |
| 20260508063649 | 83 | 66 | 13.0 | 18.2 | 0.00 | 0.60 | 0.60 | 80 | 1006.6 |
| 20260508063147 | 83 | 64 | 18.2 | 22.6 | 0.00 | 0.60 | 0.60 | 79 | 1006.6 |
| 20260508062644 | 83 | 69 | 18.2 | 26.1 | 0.00 | 0.60 | 0.60 | 80 | 1006.3 |
| 20260508062141 | 83 | 70 | 10.4 | 14.8 | 0.00 | 0.60 | 0.60 | 80 | 1007.0 |
| 20260508061638 | 83 | 64 | 12.2 | 13.9 | 0.00 | 0.60 | 0.60 | 80 | 1006.6 |
| 20260508061135 | 83 | 58 | 15.6 | 21.7 | 0.00 | 0.60 | 0.60 | 80 | 1007.0 |
| 20260508060632 | 83 | 67 | 11.3 | 13.9 | 0.00 | 0.60 | 0.60 | 81 | 1007.0 |
| 20260508060129 | 83 | 58 | 12.2 | 16.5 | 0.00 | 0.60 | 0.60 | 81 | 1007.0 |
| 20260508055625 | 83 | 64 | 12.2 | 16.5 | 0.00 | 0.60 | 0.60 | 80 | 1007.0 |
| 20260508055122 | 84 | 63 | 16.5 | 24.3 | 0.00 | 0.60 | 0.60 | 78 | 1007.0 |
| 20260508054618 | 84 | 75 | 14.8 | 20.0 | 0.00 | 0.60 | 0.60 | 76 | 1007.0 |
| 20260508054116 | 84 | 76 | 13.0 | 16.5 | 0.00 | 0.60 | 0.60 | 77 | 1007.3 |
| 20260508053612 | 84 | 72 | 13.0 | 17.4 | 0.00 | 0.60 | 0.60 | 78 | 1007.3 |
| 20260508053110 | 84 | 82 | 13.0 | 18.2 | 0.00 | 0.60 | 0.60 | 78 | 1007.3 |
| 20260508052608 | 84 | 64 | 15.6 | 20.0 | 0.00 | 0.60 | 0.60 | 79 | 1007.3 |
| 20260508052105 | 84 | 64 | 14.8 | 19.1 | 0.00 | 0.60 | 0.60 | 80 | 1007.7 |
| 20260508051600 | 84 | 68 | 15.6 | 20.0 | 0.00 | 0.60 | 0.60 | 81 | 1007.7 |
| 20260508051056 | 83 | 63 | 13.9 | 17.4 | 0.00 | 0.60 | 0.60 | 83 | 1007.7 |
| 20260508050552 | 82 | 52 | 7.8 | 8.7 | 0.00 | 0.60 | 0.60 | 85 | 1007.7 |
| 20260508050050 | 82 | 98 | 6.1 | 8.7 | 0.00 | 0.60 | 0.60 | 84 | 1007.7 |
| 20260508045546 | 82 | 75 | 8.7 | 11.3 | 0.00 | 0.60 | 0.60 | 84 | 1007.7 |
| 20260508045044 | 82 | 62 | 12.2 | 16.5 | 0.00 | 0.60 | 0.60 | 83 | 1007.7 |
| 20260508044541 | 82 | 54 | 11.3 | 16.5 | 0.00 | 0.60 | 0.60 | 83 | 1007.7 |
| 20260508044037 | 82 | 45 | 8.7 | 13.0 | 0.00 | 0.60 | 0.60 | 83 | 1008.0 |
| 20260508043533 | 82 | 46 | 9.6 | 13.0 | 0.00 | 0.60 | 0.60 | 83 | 1008.0 |
| 20260508043031 | 82 | 45 | 8.7 | 11.3 | 0.00 | 0.60 | 0.60 | 84 | 1008.0 |
| 20260508042527 | 82 | 35 | 9.6 | 13.9 | 0.00 | 0.60 | 0.60 | 84 | 1008.0 |
| 20260508042025 | 82 | 65 | 12.2 | 13.9 | 0.00 | 0.60 | 0.60 | 85 | 1008.0 |
| 20260508041521 | 82 | 54 | 9.6 | 13.0 | 0.00 | 0.60 | 0.60 | 85 | 1008.0 |
| 20260508041018 | 81 | 64 | 11.3 | 14.8 | 0.00 | 0.60 | 0.60 | 85 | 1008.0 |
| 20260508040515 | 81 | 64 | 13.0 | 16.5 | 0.00 | 0.60 | 0.60 | 85 | 1008.0 |
| 20260508040012 | 81 | 66 | 13.0 | 17.4 | 0.00 | 0.60 | 0.60 | 85 | 1008.3 |
| 20260508035509 | 81 | 55 | 11.3 | 14.8 | 0.00 | 0.60 | 0.60 | 85 | 1008.8 |
| 20260508035006 | 81 | 50 | 10.4 | 13.0 | 0.00 | 0.60 | 0.60 | 84 | 1008.8 |
| 20260508034503 | 81 | 60 | 9.6 | 11.3 | 0.00 | 0.60 | 0.60 | 84 | 1008.8 |
| 20260508034000 | 81 | 43 | 7.8 | 10.4 | 0.00 | 0.60 | 0.60 | 85 | 1008.8 |
| 20260508033458 | 80 | 47 | 8.7 | 11.3 | 0.00 | 0.60 | 0.60 | 87 | 1008.8 |
| 20260508032955 | 80 | 58 | 9.6 | 13.9 | 0.00 | 0.60 | 0.60 | 88 | 1008.8 |
| 20260508032452 | 80 | 62 | 6.1 | 8.7 | 0.00 | 0.60 | 0.60 | 88 | 1008.8 |
| 20260508031949 | 80 | 58 | 10.4 | 13.9 | 0.00 | 0.60 | 0.60 | 88 | 1008.8 |
| 20260508031447 | 80 | 61 | 9.6 | 11.3 | 0.00 | 0.60 | 0.60 | 87 | 1009.1 |
| 20260508030942 | 80 | 66 | 9.6 | 11.3 | 0.00 | 0.60 | 0.60 | 87 | 1009.1 |
| 20260508030439 | 79 | 70 | 10.4 | 14.8 | 0.00 | 0.59 | 0.59 | 88 | 1009.4 |
| 20260508025937 | 79 | 83 | 10.4 | 18.2 | 0.00 | 0.59 | 0.59 | 88 | 1009.4 |
| 20260508025433 | 79 | 32 | 12.2 | 14.8 | 0.00 | 0.59 | 0.59 | 88 | 1009.4 |
| 20260508024930 | 79 | 53 | 9.6 | 15.6 | 0.00 | 0.59 | 0.59 | 89 | 1009.4 |
| 20260508024426 | 79 | 47 | 8.7 | 10.4 | 0.00 | 0.59 | 0.59 | 88 | 1009.4 |
| 20260508023923 | 79 | 58 | 14.8 | 19.1 | 0.00 | 0.58 | 0.58 | 89 | 1009.4 |
| 20260508023420 | 78 | 58 | 11.3 | 13.0 | 0.00 | 0.58 | 0.58 | 89 | 1009.4 |
| 20260508022917 | 78 | 49 | 14.8 | 19.1 | 0.00 | 0.58 | 0.58 | 89 | 1009.4 |
| 20260508022413 | 78 | 63 | 16.5 | 21.7 | 0.00 | 0.57 | 0.57 | 89 | 1009.8 |
| 20260508021910 | 78 | 92 | 17.4 | 23.5 | 0.94 | 0.52 | 0.52 | 89 | 1009.8 |
| 20260508021406 | 79 | 49 | 19.1 | 24.3 | 0.94 | 0.42 | 0.42 | 87 | 1009.4 |
| 20260508020902 | 81 | 16 | 13.0 | 15.6 | 0.00 | 0.38 | 0.38 | 86 | 1009.4 |
| 20260508020400 | 80 | 23 | 8.7 | 11.3 | 0.00 | 0.38 | 0.38 | 87 | 1009.4 |
| 20260508015857 | 81 | 34 | 10.4 | 14.8 | 0.00 | 0.37 | 0.37 | 86 | 1009.8 |
| 20260508015354 | 81 | 32 | 8.7 | 11.3 | 0.00 | 0.37 | 0.37 | 86 | 1009.8 |
| 20260508014850 | 80 | 32 | 8.7 | 11.3 | 0.00 | 0.37 | 0.37 | 86 | 1009.8 |
| 20260508014348 | 80 | 37 | 7.8 | 10.4 | 0.00 | 0.37 | 0.37 | 87 | 1009.8 |
| 20260508013843 | 80 | 19 | 8.7 | 12.2 | 0.47 | 0.36 | 0.36 | 87 | 1009.8 |
| 20260508013340 | 80 | 25 | 7.0 | 8.7 | 0.00 | 0.36 | 0.36 | 87 | 1010.1 |
| 20260508012837 | 80 | 9 | 5.2 | 10.4 | 0.00 | 0.36 | 0.36 | 88 | 1010.1 |
| 20260508012334 | 79 | 8 | 7.8 | 10.4 | 0.00 | 0.36 | 0.36 | 88 | 1010.1 |
| 20260508011832 | 79 | 14 | 6.1 | 8.7 | 0.00 | 0.36 | 0.36 | 88 | 1010.1 |
| 20260508011330 | 79 | 17 | 7.8 | 9.6 | 0.00 | 0.36 | 0.36 | 88 | 1010.1 |
| 20260508010827 | 78 | 29 | 7.0 | 11.3 | 0.00 | 0.36 | 0.36 | 88 | 1010.1 |
| 20260508010324 | 78 | 39 | 7.0 | 8.7 | 0.00 | 0.36 | 0.36 | 88 | 1010.5 |
| 20260508005821 | 78 | 39 | 7.0 | 9.6 | 0.00 | 0.36 | 0.36 | 88 | 1010.5 |
| 20260508005318 | 77 | 28 | 7.8 | 10.4 | 0.00 | 0.36 | 0.36 | 88 | 1010.5 |
| 20260508004815 | 77 | 49 | 6.1 | 7.8 | 0.00 | 0.36 | 0.36 | 88 | 1010.5 |
| 20260508004310 | 76 | 38 | 7.8 | 11.3 | 0.00 | 0.36 | 0.36 | 88 | 1010.5 |
| 20260508003807 | 76 | 44 | 7.0 | 8.7 | 0.94 | 0.34 | 0.34 | 89 | 1010.8 |
| 20260508003304 | 76 | 52 | 5.2 | 6.1 | 0.00 | 0.33 | 0.33 | 89 | 1010.8 |
| 20260508002801 | 76 | 60 | 9.6 | 11.3 | 0.94 | 0.27 | 0.27 | 89 | 1011.1 |
| 20260508002258 | 76 | 68 | 11.3 | 16.5 | 0.47 | 0.25 | 0.25 | 89 | 1011.1 |
| 20260508001754 | 76 | 66 | 13.0 | 20.0 | 0.47 | 0.23 | 0.23 | 90 | 1011.1 |
| 20260508001249 | 76 | 78 | 13.9 | 20.0 | 0.00 | 0.20 | 0.20 | 89 | 1011.5 |
| 20260508000746 | 77 | 71 | 17.4 | 21.7 | 1.89 | 0.12 | 0.12 | 88 | 1011.1 |
| 20260508000243 | 82 | 74 | 31.3 | 40.0 | 0.00 | 0.02 | 0.02 | 83 | 1010.8 |
| 20260507235739 | 83 | 49 | 12.2 | 15.6 | 0.00 | 0.02 | 0.02 | 83 | 1010.5 |
| 20260507235237 | 83 | 50 | 12.2 | 16.5 | 0.00 | 0.02 | 0.02 | 83 | 1010.5 |
| 20260507234734 | 83 | 35 | 7.8 | 10.4 | 0.00 | 0.02 | 0.02 | 82 | 1010.5 |
| 20260507234230 | 84 | 45 | 8.7 | 10.4 | 0.00 | 0.02 | 0.02 | 81 | 1010.5 |
| 20260507233727 | 84 | 22 | 7.8 | 10.4 | 0.00 | 0.02 | 0.02 | 81 | 1010.1 |
| 20260507233225 | 84 | 25 | 9.6 | 12.2 | 0.00 | 0.02 | 0.02 | 80 | 1010.1 |
| 20260507232722 | 84 | 48 | 7.8 | 9.6 | 0.00 | 0.02 | 0.02 | 80 | 1010.1 |
| 20260507232219 | 84 | 37 | 10.4 | 13.9 | 0.00 | 0.02 | 0.02 | 81 | 1010.1 |
| 20260507231715 | 84 | 16 | 8.7 | 9.6 | 0.00 | 0.02 | 0.02 | 82 | 1010.1 |
| 20260507231213 | 84 | 23 | 10.4 | 13.9 | 0.00 | 0.02 | 0.02 | 81 | 1009.8 |
| 20260507230709 | 85 | 27 | 9.6 | 13.0 | 0.00 | 0.02 | 0.02 | 79 | 1009.8 |
| 20260507230207 | 85 | 26 | 10.4 | 13.9 | 0.00 | 0.02 | 0.02 | 77 | 1009.8 |
| 20260507225706 | 85 | 21 | 9.6 | 13.9 | 0.00 | 0.02 | 0.02 | 78 | 1009.8 |
| 20260507225203 | 84 | 31 | 10.4 | 14.8 | 0.00 | 0.02 | 0.02 | 79 | 1009.8 |
| 20260507224658 | 85 | 23 | 7.8 | 12.2 | 0.00 | 0.02 | 0.02 | 79 | 1009.8 |
| 20260507224155 | 85 | 14 | 7.8 | 12.2 | 0.00 | 0.02 | 0.02 | 79 | 1010.1 |
| 20260507223651 | 85 | 23 | 10.4 | 14.8 | 0.00 | 0.02 | 0.02 | 79 | 1009.8 |
| 20260507223148 | 84 | 6 | 7.0 | 8.7 | 0.00 | 0.02 | 0.02 | 80 | 1009.8 |
| 20260507222645 | 84 | 30 | 10.4 | 13.0 | 0.00 | 0.02 | 0.02 | 80 | 1009.8 |
| 20260507222141 | 84 | 28 | 7.8 | 9.6 | 0.00 | 0.02 | 0.02 | 80 | 1009.8 |
| 20260507221638 | 84 | 5 | 7.8 | 11.3 | 0.00 | 0.02 | 0.02 | 80 | 1009.8 |
| 20260507221134 | 84 | 21 | 7.8 | 10.4 | 0.00 | 0.02 | 0.02 | 81 | 1009.4 |
| 20260507220632 | 84 | 27 | 4.3 | 6.1 | 0.00 | 0.02 | 0.02 | 81 | 1009.4 |
| 20260507220130 | 84 | 24 | 9.6 | 13.9 | 0.00 | 0.02 | 0.02 | 81 | 1009.4 |
| 20260507215625 | 83 | 26 | 8.7 | 12.2 | 0.00 | 0.02 | 0.02 | 82 | 1009.4 |
| 20260507215123 | 83 | 13 | 5.2 | 6.1 | 0.00 | 0.02 | 0.02 | 82 | 1009.4 |
| 20260507214620 | 83 | 27 | 6.1 | 8.7 | 0.00 | 0.02 | 0.02 | 82 | 1009.4 |
| 20260507214116 | 83 | 20 | 5.2 | 7.0 | 0.00 | 0.02 | 0.02 | 82 | 1009.4 |
| 20260507213612 | 83 | 19 | 7.0 | 8.7 | 0.00 | 0.02 | 0.02 | 82 | 1009.4 |
| 20260507213110 | 83 | 25 | 5.2 | 7.0 | 0.00 | 0.02 | 0.02 | 82 | 1009.4 |
| 20260507212606 | 83 | 24 | 7.8 | 9.6 | 0.00 | 0.02 | 0.02 | 83 | 1009.4 |
| 20260507212102 | 82 | 16 | 7.8 | 10.4 | 0.00 | 0.02 | 0.02 | 83 | 1009.4 |
| 20260507211559 | 82 | 36 | 6.1 | 7.8 | 0.00 | 0.02 | 0.02 | 83 | 1009.4 |
| 20260507211055 | 82 | 30 | 5.2 | 7.8 | 0.00 | 0.02 | 0.02 | 83 | 1009.4 |
| 20260507210553 | 82 | 18 | 7.8 | 10.4 | 0.00 | 0.02 | 0.02 | 83 | 1009.4 |
| 20260507210049 | 82 | 18 | 7.0 | 7.8 | 0.00 | 0.02 | 0.02 | 83 | 1009.4 |
| 20260507205546 | 82 | 11 | 7.8 | 9.6 | 0.00 | 0.02 | 0.02 | 83 | 1009.4 |
| 20260507205042 | 82 | 28 | 7.8 | 10.4 | 0.00 | 0.02 | 0.02 | 84 | 1009.4 |
| 20260507204539 | 82 | 26 | 6.1 | 8.7 | 0.00 | 0.02 | 0.02 | 84 | 1009.4 |
| 20260507204036 | 82 | 29 | 5.2 | 7.8 | 0.00 | 0.02 | 0.02 | 85 | 1009.4 |
| 20260507203534 | 81 | 24 | 6.1 | 7.8 | 0.00 | 0.02 | 0.02 | 85 | 1009.4 |
| 20260507203031 | 81 | 36 | 7.0 | 8.7 | 0.00 | 0.02 | 0.02 | 85 | 1009.8 |
| 20260507202527 | 81 | 33 | 5.2 | 7.8 | 0.00 | 0.02 | 0.02 | 85 | 1009.4 |
| 20260507202023 | 81 | 43 | 7.8 | 11.3 | 0.00 | 0.02 | 0.02 | 85 | 1009.4 |
| 20260507201519 | 81 | 37 | 6.1 | 8.7 | 0.00 | 0.02 | 0.02 | 86 | 1009.4 |
| 20260507201016 | 81 | 39 | 6.1 | 7.8 | 0.00 | 0.02 | 0.02 | 85 | 1009.4 |
| 20260507200511 | 81 | 22 | 7.0 | 11.3 | 0.00 | 0.02 | 0.02 | 85 | 1009.4 |
| 20260507200007 | 81 | 21 | 6.1 | 8.7 | 0.00 | 0.02 | 0.02 | 86 | 1009.4 |
| 20260507195505 | 81 | 22 | 4.3 | 6.1 | 0.00 | 0.02 | 0.02 | 86 | 1009.4 |
| 20260507195002 | 81 | 31 | 5.2 | 7.8 | 0.00 | 0.02 | 0.02 | 86 | 1009.4 |
| 20260507194458 | 81 | 27 | 6.1 | 7.8 | 0.00 | 0.02 | 0.02 | 86 | 1009.4 |
| 20260507193954 | 81 | 21 | 5.2 | 7.8 | 0.00 | 0.02 | 0.02 | 86 | 1009.4 |
| 20260507193452 | 81 | 16 | 5.2 | 7.8 | 0.00 | 0.02 | 0.02 | 86 | 1009.4 |
| 20260507192948 | 81 | 16 | 6.1 | 7.8 | 0.00 | 0.02 | 0.02 | 86 | 1009.4 |
| 20260507192444 | 81 | 26 | 4.3 | 6.1 | 0.00 | 0.02 | 0.02 | 85 | 1009.4 |
| 20260507191942 | 81 | 25 | 6.1 | 8.7 | 0.00 | 0.02 | 0.02 | 85 | 1009.4 |
| 20260507191437 | 81 | 26 | 5.2 | 7.0 | 0.00 | 0.02 | 0.02 | 85 | 1009.4 |
| 20260507190934 | 81 | 21 | 6.1 | 7.8 | 0.00 | 0.02 | 0.02 | 85 | 1009.4 |
| 20260507190432 | 81 | 31 | 5.2 | 7.8 | 0.00 | 0.02 | 0.02 | 85 | 1009.4 |
| 20260507185931 | 81 | 38 | 7.0 | 8.7 | 0.00 | 0.02 | 0.02 | 85 | 1009.1 |
| 20260507185428 | 81 | 37 | 5.2 | 6.1 | 0.00 | 0.02 | 0.02 | 84 | 1009.1 |
| 20260507184924 | 81 | 39 | 7.8 | 8.7 | 0.00 | 0.02 | 0.02 | 84 | 1009.1 |
| 20260507184422 | 81 | 27 | 5.2 | 7.8 | 0.00 | 0.02 | 0.02 | 84 | 1009.1 |
| 20260507183920 | 81 | 31 | 6.1 | 7.0 | 0.00 | 0.02 | 0.02 | 85 | 1009.1 |
| 20260507183416 | 81 | 18 | 4.3 | 7.0 | 0.00 | 0.02 | 0.02 | 84 | 1009.1 |
| 20260507182914 | 81 | 14 | 5.2 | 7.0 | 0.00 | 0.02 | 0.02 | 84 | 1008.8 |
| 20260507182409 | 81 | 30 | 7.0 | 7.8 | 0.00 | 0.02 | 0.02 | 83 | 1008.8 |
| 20260507181906 | 81 | 22 | 5.2 | 7.0 | 0.00 | 0.02 | 0.02 | 83 | 1008.8 |
| 20260507181402 | 81 | 17 | 8.7 | 10.4 | 0.00 | 0.02 | 0.02 | 83 | 1008.8 |
| 20260507180859 | 81 | 29 | 6.1 | 7.0 | 0.00 | 0.02 | 0.02 | 83 | 1008.8 |
| 20260507180355 | 81 | 28 | 8.7 | 11.3 | 0.00 | 0.02 | 0.02 | 83 | 1008.8 |
| 20260507175851 | 81 | 35 | 7.0 | 7.8 | 0.00 | 0.02 | 0.02 | 83 | 1008.8 |
| 20260507175348 | 81 | 33 | 7.0 | 9.6 | 0.00 | 0.02 | 0.02 | 83 | 1008.8 |
| 20260507174846 | 81 | 21 | 7.0 | 9.6 | 0.00 | 0.02 | 0.02 | 83 | 1008.8 |
| 20260507174343 | 81 | 29 | 5.2 | 7.8 | 0.00 | 0.02 | 0.02 | 84 | 1009.1 |
| 20260507173841 | 81 | 21 | 7.8 | 9.6 | 0.00 | 0.02 | 0.02 | 84 | 1009.1 |
| 20260507173337 | 81 | 24 | 4.3 | 5.2 | 0.00 | 0.02 | 0.02 | 84 | 1009.1 |
| 20260507172833 | 81 | 11 | 6.1 | 9.6 | 0.00 | 0.02 | 0.02 | 84 | 1009.1 |
| 20260507172331 | 81 | 28 | 7.0 | 10.4 | 0.00 | 0.02 | 0.02 | 84 | 1009.1 |
| 20260507171826 | 81 | 27 | 6.1 | 7.0 | 0.00 | 0.02 | 0.02 | 85 | 1009.1 |
| 20260507171323 | 81 | 25 | 5.2 | 6.1 | 0.00 | 0.02 | 0.02 | 85 | 1009.1 |
| 20260507170820 | 81 | 29 | 5.2 | 6.1 | 0.00 | 0.02 | 0.02 | 85 | 1009.1 |
| 20260507170317 | 81 | 22 | 6.1 | 7.8 | 0.00 | 0.02 | 0.02 | 85 | 1009.1 |
| 20260507165813 | 81 | 37 | 7.0 | 9.6 | 0.00 | 0.02 | 0.02 | 85 | 1009.1 |